Date_and_time,latitude,longitude,wind_speed,RelWindDirFrom,WindDirFrom,air_pressure,air_temperature,relative_humidity,Temp,platform_speed_wrt_ground,air_pressure_at_mean_sea_level,platform_orientation
2019-06-27 23:40,50.6304633333333,-96.9807583333333,4.6,5.8,81,991.54,24.0,60,21.36,0.0,1017.28,347.4
2019-06-27 23:50,50.63046,-96.9807616666667,4.6,5.8,92,991.63,24.3,60,21.42,0.0,1017.35,347.4
2019-06-28 00:00,50.6304583333333,-96.980765,3.7,4.8,91,991.65,24.2,62,21.58,0.0,1017.38,122.3
2019-06-28 00:10,50.6304566666667,-96.9807666666667,3.7,4.6,92,991.64,23.8,61,21.79,0.0,1017.38,122.3
2019-06-28 00:20,50.6304583333333,-96.9807683333333,3.8,4.9,110,991.63,23.8,63,22.05,0.0,1017.37,122.3
2019-06-28 00:30,50.6304333333333,-96.9807733333333,3.3,4.3,121,991.67,23.4,65,22.14,0.0,1017.44,122.3
2019-06-28 00:40,50.630445,-96.98077,2.5,3.8,98,991.72,23.2,65,22.10,0.0,1017.50,122.3
2019-06-28 00:50,50.63045,-96.9807733333333,2.2,2.9,91,991.74,23.3,64,22.04,0.0,1017.51,122.3
2019-06-28 01:00,50.6304483333333,-96.98077,2.5,3.3,112,991.78,23.4,63,22.12,0.0,1017.54,66.4
2019-06-28 01:10,50.6304566666667,-96.98077,1.9,3.2,106,991.79,23.5,59,22.06,0.0,1017.55,66.4
2019-06-28 01:20,50.6304566666667,-96.9807683333333,2.0,2.9,84,991.81,23.8,55,22.08,0.0,1017.53,66.4
2019-06-28 01:30,50.630455,-96.9807716666667,2.4,3.5,111,991.86,24.6,56,22.18,0.0,1017.53,66.4
2019-06-28 01:40,50.630455,-96.98077,2.2,3.1,148,991.87,23.4,61,22.03,0.0,1017.58,66.4
2019-06-28 01:50,50.6304483333333,-96.9807833333333,1.0,2.2,154,991.89,23.2,58,21.94,0.0,1017.60,66.4
2019-06-28 02:00,50.6304533333333,-96.980755,1.1,2.4,74,991.89,24.0,54,21.86,0.0,1017.59,60.8
2019-06-28 02:10,50.63046,-96.9807566666667,0.5,1.8,54,991.89,24.1,52,22.11,0.0,1017.59,60.8
2019-06-28 02:20,50.6304666666667,-96.98078,0.1,0.7,49,991.94,23.7,53,22.27,0.0,1017.67,60.8
2019-06-28 02:30,50.6304633333333,-96.9807766666667,0.1,0.8,284,991.95,23.3,51,22.35,0.0,1017.71,60.8
2019-06-28 02:40,50.6304533333333,-96.9807816666667,0.3,1.2,341,991.96,23.0,53,22.33,0.0,1017.73,60.8
2019-06-28 02:50,50.6304533333333,-96.9807733333333,1.0,1.9,36,992.08,22.9,54,22.29,0.0,1017.85,60.8
2019-06-28 03:00,50.6304533333333,-96.98077,0.5,1.5,36,992.13,22.8,54,22.39,0.0,1017.91,360.0
2019-06-28 03:10,50.6304533333333,-96.9807683333333,0.0,0.0,0,992.12,22.6,58,22.45,0.0,1017.89,360.0
2019-06-28 03:20,50.6304533333333,-96.9807683333333,0.3,0.9,307,992.11,22.1,59,22.48,0.0,1017.87,360.0
2019-06-28 03:30,50.6304533333333,-96.9807683333333,1.2,1.8,310,992.19,21.9,56,22.47,0.0,1018.02,360.0
2019-06-28 03:40,50.6304516666667,-96.9807666666667,1.2,1.7,299,992.18,21.4,58,22.49,0.0,1018.03,360.0
2019-06-28 03:50,50.6304516666667,-96.9807683333333,1.2,1.7,277,992.19,20.9,60,22.52,0.0,1018.02,360.0
2019-06-28 04:00,50.6304516666667,-96.9807666666667,1.4,1.9,307,992.16,20.7,60,22.54,0.0,1018.00,360.0
2019-06-28 04:10,50.63045,-96.9807666666667,1.6,2.1,319,992.20,20.9,58,22.51,0.0,1018.05,360.0
2019-06-28 04:20,50.63045,-96.9807683333333,1.4,1.8,316,992.19,20.8,60,22.51,0.0,1018.06,360.0
2019-06-28 04:30,50.63045,-96.9807683333333,1.7,2.3,313,992.14,20.4,63,22.49,0.0,1018.05,360.0
2019-06-28 04:40,50.63045,-96.9807666666667,2.2,2.8,323,992.16,20.2,61,22.49,0.0,1018.08,360.0
2019-06-28 04:50,50.63045,-96.9807666666667,1.3,2.3,297,992.26,20.3,60,22.62,0.0,1018.18,360.0
2019-06-28 05:00,50.630445,-96.98077,1.7,2.2,271,992.32,19.7,65,22.65,0.0,1018.27,194.5
2019-06-28 05:10,50.6304466666667,-96.9807683333333,2.4,3.1,277,992.35,19.3,64,22.63,0.0,1018.34,194.5
2019-06-28 05:20,50.63044,-96.9807666666667,3.1,4.3,286,992.47,18.9,65,22.63,0.0,1018.50,194.5
2019-06-28 05:30,50.6304516666667,-96.9807683333333,3.6,5.0,276,992.51,18.2,68,22.65,0.0,1018.59,194.5
2019-06-28 05:40,50.63045,-96.9807633333333,2.5,4.2,253,992.48,17.9,69,22.64,0.0,1018.60,194.5
2019-06-28 05:50,50.6304483333333,-96.98076,1.8,3.1,256,992.33,17.7,71,22.63,0.0,1018.46,194.5
2019-06-28 06:00,50.6304416666667,-96.98077,2.8,3.7,266,992.22,17.6,70,22.62,0.0,1018.35,360.0
2019-06-28 06:10,50.630425,-96.980765,2.9,4.3,285,992.13,17.7,69,22.64,0.0,1018.25,360.0
2019-06-28 06:20,50.6304483333333,-96.9807633333333,2.9,4.2,295,992.08,17.8,66,22.62,0.0,1018.21,360.0
2019-06-28 06:30,50.6304466666667,-96.9807633333333,3.2,4.8,325,991.95,18.4,63,22.58,0.0,1018.06,360.0
2019-06-28 06:40,50.6304416666667,-96.980765,3.0,4.1,328,991.87,18.7,63,22.53,0.0,1017.96,360.0
2019-06-28 06:50,50.6304433333333,-96.980765,3.1,4.2,331,991.99,18.5,63,22.47,0.0,1018.12,360.0
2019-06-28 07:00,50.6304433333333,-96.9807666666667,4.8,6.2,336,992.21,18.7,63,22.42,0.0,1018.36,360.0
2019-06-28 07:10,50.6304433333333,-96.9807683333333,4.9,6.1,334,992.43,19.0,61,22.40,0.0,1018.59,360.0
2019-06-28 07:20,50.630445,-96.9807683333333,5.0,6.7,317,992.53,19.0,59,22.36,0.0,1018.72,360.0
2019-06-28 07:30,50.6304466666667,-96.9807683333333,4.8,7.0,307,992.52,18.7,61,22.34,0.0,1018.74,360.0
2019-06-28 07:40,50.6304466666667,-96.9807666666667,4.4,5.8,312,992.28,18.2,64,22.32,0.0,1018.53,360.0
2019-06-28 07:50,50.6304483333333,-96.9807666666667,4.1,5.8,316,992.46,17.9,65,22.34,0.0,1018.73,360.0
2019-06-28 08:00,50.6304483333333,-96.9807666666667,3.4,5.0,320,992.48,17.9,64,22.36,0.0,1018.74,360.0
2019-06-28 08:10,50.6304483333333,-96.9807666666667,2.9,3.7,341,992.25,17.9,66,22.32,0.0,1018.51,360.0
2019-06-28 08:20,50.6304483333333,-96.9807683333333,2.0,3.0,335,992.13,17.8,67,22.35,0.0,1018.36,360.0
2019-06-28 08:30,50.6304483333333,-96.9807683333333,2.3,4.0,333,992.09,17.8,67,22.41,0.0,1018.30,360.0
2019-06-28 08:40,50.6304483333333,-96.9807683333333,2.9,4.5,323,992.26,17.8,69,22.44,0.0,1018.49,360.0
2019-06-28 08:50,50.6304483333333,-96.9807683333333,3.4,4.4,330,992.20,17.7,71,22.47,0.0,1018.42,360.0
2019-06-28 09:00,50.6304616666667,-96.9807816666667,1.2,3.3,315,992.15,17.5,72,22.47,0.0,1018.36,360.0
2019-06-28 09:10,50.6304416666667,-96.9807766666667,1.8,3.4,316,992.20,17.1,72,22.46,0.0,1018.43,360.0
2019-06-28 09:20,50.6304466666667,-96.9807683333333,2.3,3.2,337,992.26,17.1,74,22.43,0.0,1018.51,360.0
2019-06-28 09:30,50.6304483333333,-96.9807716666667,2.8,4.0,333,992.35,17.1,77,22.42,0.0,1018.62,360.0
2019-06-28 09:40,50.6304483333333,-96.9807716666667,3.5,4.6,347,992.35,17.2,80,22.36,0.0,1018.63,360.0
2019-06-28 09:50,50.6304483333333,-96.9807716666667,3.2,4.5,354,992.43,17.3,86,22.35,0.0,1018.71,360.0
2019-06-28 10:00,50.6304483333333,-96.9807716666667,4.7,8.9,14,992.39,18.2,88,22.36,0.0,1018.63,347.4
2019-06-28 10:10,50.6304566666667,-96.980765,7.5,8.6,47,992.33,20.3,82,22.37,0.0,1018.48,347.4
2019-06-28 10:20,50.6304416666667,-96.9807633333333,7.7,8.8,64,992.27,20.8,74,22.37,0.0,1018.39,347.4
2019-06-28 10:30,50.6304416666667,-96.9807633333333,7.6,8.9,58,992.36,20.8,72,22.36,0.0,1018.48,347.4
2019-06-28 10:40,50.6304416666667,-96.980765,7.4,8.3,49,992.68,20.8,71,22.34,0.0,1018.82,347.4
2019-06-28 10:50,50.6304033333333,-96.9807883333333,7.8,8.7,45,992.89,20.8,66,22.27,0.0,1019.04,347.4
2019-06-28 11:00,50.6304466666667,-96.9807783333333,7.1,8.4,34,993.18,20.7,64,22.21,0.0,1019.36,270.0
2019-06-28 11:10,50.63044,-96.980755,6.5,7.6,38,993.64,20.8,60,22.04,0.0,1019.82,270.0
2019-06-28 11:20,50.6304433333333,-96.9807633333333,5.6,6.7,36,993.66,20.8,61,21.87,0.0,1019.85,270.0
2019-06-28 11:30,50.630445,-96.9807666666667,4.0,5.0,52,993.88,20.8,61,21.79,0.0,1020.07,270.0
2019-06-28 11:40,50.630445,-96.9807733333333,1.3,4.2,67,993.95,20.4,63,21.66,0.0,1020.15,270.0
2019-06-28 11:50,50.6304133333333,-96.9807633333333,0.9,2.0,282,993.99,18.5,69,21.68,0.0,1020.24,270.0
2019-06-28 12:00,50.63044,-96.9807733333333,2.7,5.6,22,993.93,19.1,72,21.86,0.0,1020.05,165.5
2019-06-28 12:10,50.6304433333333,-96.9807683333333,5.7,7.1,61,993.87,20.6,66,22.08,0.0,1019.90,165.5
2019-06-28 12:20,50.630445,-96.9807716666667,6.3,7.4,56,993.83,21.0,61,22.11,0.0,1019.84,165.5
2019-06-28 12:30,50.6304483333333,-96.9807716666667,6.6,7.6,56,993.84,21.0,59,22.15,0.0,1019.86,165.5
2019-06-28 12:40,50.6304533333333,-96.9807783333333,6.7,7.9,58,993.84,21.0,59,22.18,0.0,1019.86,165.5
2019-06-28 12:50,50.6304533333333,-96.980775,5.9,6.7,56,993.88,20.9,59,22.18,0.0,1019.91,165.5
2019-06-28 13:00,50.6304516666667,-96.980775,5.2,6.2,58,994.05,21.0,59,22.14,0.0,1020.07,360.0
2019-06-28 13:10,50.6304516666667,-96.9807733333333,5.0,6.0,52,994.14,21.0,60,22.12,0.0,1020.17,360.0
2019-06-28 13:20,50.63045,-96.9807733333333,4.8,6.0,50,994.04,20.9,61,22.07,0.0,1020.07,360.0
2019-06-28 13:30,50.63045,-96.9807716666667,4.1,5.0,55,994.05,20.9,61,22.03,0.0,1020.10,360.0
2019-06-28 13:40,50.63045,-96.9807716666667,3.7,4.7,48,994.06,20.8,62,22.04,0.0,1020.19,360.0
2019-06-28 13:50,50.630445,-96.980755,3.2,4.2,58,994.13,20.9,61,22.04,0.0,1020.23,360.0
2019-06-28 14:00,50.630445,-96.9807616666667,4.3,5.1,47,994.02,20.8,61,22.05,0.0,1020.06,107.7
2019-06-28 14:10,50.6304516666667,-96.9807566666667,4.9,6.0,49,993.81,20.7,62,22.07,0.0,1019.83,107.7
2019-06-28 14:20,50.6304483333333,-96.98077,4.1,5.0,53,993.99,20.7,62,22.05,0.0,1020.01,107.7
2019-06-28 14:30,50.630445,-96.9807683333333,3.8,5.7,49,994.02,20.8,61,22.06,0.0,1020.04,107.7
2019-06-28 14:40,50.6304433333333,-96.98077,4.8,6.1,44,993.96,20.7,63,22.06,0.0,1019.99,107.7
2019-06-28 14:50,50.6304433333333,-96.98077,5.5,6.5,34,993.89,20.6,64,22.08,0.0,1019.92,107.7
2019-06-28 15:00,50.63044,-96.9807633333333,6.5,7.7,35,993.71,20.4,63,22.13,0.0,1019.74,90.0
2019-06-28 15:10,50.63044,-96.9807633333333,6.3,7.4,34,993.62,20.5,61,22.15,0.0,1019.65,90.0
2019-06-28 15:20,50.63044,-96.9807616666667,5.9,6.9,33,993.54,20.6,64,22.14,0.0,1019.56,90.0
2019-06-28 15:30,50.6304416666667,-96.98076,6.3,8.0,27,993.61,20.6,66,22.11,0.0,1019.63,90.0
2019-06-28 15:40,50.6304416666667,-96.9807616666667,7.2,8.3,20,993.70,20.6,66,22.10,0.0,1019.73,90.0
2019-06-28 15:50,50.6304416666667,-96.9807616666667,7.1,8.2,21,993.68,20.6,67,22.10,0.0,1019.71,90.0
2019-06-28 16:00,50.6304416666667,-96.9807616666667,6.8,8.1,16,993.82,20.6,67,22.11,0.0,1019.86,167.4
2019-06-28 16:10,50.6304416666667,-96.9807616666667,6.6,7.3,16,993.85,20.8,66,22.11,0.0,1019.88,167.4
2019-06-28 16:20,50.6304416666667,-96.98076,6.9,8.1,19,993.80,21.0,64,22.11,0.0,1019.82,167.4
2019-06-28 16:30,50.6304416666667,-96.98076,7.1,8.1,17,993.88,21.1,63,22.11,0.0,1019.90,167.4
2019-06-28 16:40,50.6304416666667,-96.9807616666667,6.8,7.6,14,993.91,21.2,62,22.08,0.0,1019.93,167.4
2019-06-28 16:50,50.6304416666667,-96.9807616666667,7.2,8.4,14,993.92,21.4,62,22.13,0.0,1019.93,167.4
2019-06-28 17:00,50.6304416666667,-96.9807616666667,7.4,8.5,10,993.91,21.5,61,22.15,0.0,1019.92,0.0
2019-06-28 17:10,50.6304416666667,-96.9807616666667,7.9,8.9,9,993.86,21.6,59,22.17,0.0,1019.86,0.0
2019-06-28 17:20,50.6304416666667,-96.9807616666667,7.4,8.3,8,993.81,21.7,56,22.21,0.0,1019.80,0.0
2019-06-28 17:30,50.6304416666667,-96.9807633333333,7.9,9.0,12,993.76,21.7,57,22.23,0.0,1019.75,0.0
2019-06-28 17:40,50.6304283333333,-96.98078,7.4,8.1,16,993.70,21.7,58,22.28,0.0,1019.69,0.0
2019-06-28 17:50,50.6304366666667,-96.9807666666667,7.7,8.5,15,993.72,21.7,58,22.26,0.0,1019.71,0.0
2019-06-28 18:00,50.6304416666667,-96.98077,7.7,8.6,14,993.71,21.9,59,22.23,0.0,1019.68,90.0
2019-06-28 18:10,50.630445,-96.9807716666667,7.1,8.0,21,993.71,21.9,59,22.23,0.0,1019.68,90.0
2019-06-28 18:20,50.6304433333333,-96.9807666666667,7.3,8.0,23,993.62,22.1,57,22.23,0.0,1019.57,90.0
2019-06-28 18:30,50.630445,-96.98077,6.3,7.3,28,993.69,22.2,58,22.24,0.0,1019.64,90.0
2019-06-28 18:40,50.630445,-96.9807716666667,5.9,6.9,32,993.61,22.3,58,22.24,0.0,1019.54,90.0
2019-06-28 18:50,50.6304466666667,-96.98077,5.7,6.3,25,993.74,22.3,59,22.23,0.0,1019.66,90.0
2019-06-28 19:00,50.6304466666667,-96.9807716666667,5.6,6.4,20,993.78,22.4,59,22.23,0.0,1019.70,305.3
2019-06-28 19:10,50.63045,-96.9807716666667,6.8,8.1,21,993.72,22.6,59,22.23,0.0,1019.62,305.3
2019-06-28 19:20,50.630455,-96.9807733333333,6.4,7.7,17,993.81,22.8,60,22.22,0.0,1019.71,305.3
2019-06-28 19:30,50.63043,-96.980755,5.7,6.4,17,993.88,22.9,59,22.28,0.0,1019.78,305.3
2019-06-28 19:40,50.6304383333333,-96.9807633333333,5.8,6.6,18,993.91,23.0,58,22.34,0.0,1019.79,305.3
2019-06-28 19:50,50.6304416666667,-96.980765,6.0,6.8,24,993.80,23.1,59,22.29,0.0,1019.68,305.3
2019-06-28 20:00,50.630445,-96.98077,6.4,7.2,26,993.71,23.1,59,22.30,0.0,1019.58,270.0
2019-06-28 20:10,50.6304666666667,-96.980775,6.2,7.2,28,993.67,23.3,58,22.50,0.0,1019.52,270.0
2019-06-28 20:20,50.6304583333333,-96.9807666666667,7.1,8.1,32,993.60,23.4,58,22.48,0.0,1019.44,270.0
2019-06-28 20:30,50.630455,-96.980775,6.8,7.8,37,993.58,23.6,57,22.62,0.0,1019.41,270.0
2019-06-28 20:40,50.63044,-96.98078,7.3,8.2,33,993.51,23.8,55,22.74,0.0,1019.34,270.0
2019-06-28 20:50,50.6304583333333,-96.9807733333333,7.9,8.8,38,993.46,23.8,54,22.64,0.0,1019.27,270.0
2019-06-28 21:00,50.6304566666667,-96.98078,8.0,9.5,34,993.44,23.9,54,22.56,0.0,1019.24,310.6
2019-06-28 21:10,50.6304316666667,-96.980775,8.6,9.5,30,993.31,23.9,54,22.50,0.0,1019.10,310.6
2019-06-28 21:20,50.6304733333333,-96.9807633333333,8.9,10.0,24,993.21,23.9,55,22.51,0.0,1018.99,310.6
2019-06-28 21:30,50.6304633333333,-96.9808016666667,8.7,9.8,23,993.19,24.0,55,22.55,0.0,1018.96,310.6
2019-06-28 21:40,50.63045,-96.9807366666667,7.9,9.0,27,993.20,24.0,57,22.55,0.0,1018.97,310.6
2019-06-28 21:50,50.630435,-96.9807866666667,8.1,9.3,21,993.30,24.1,56,22.53,0.0,1019.07,310.6
2019-06-28 22:00,50.63044,-96.980775,8.2,9.2,17,993.31,24.2,56,22.59,0.0,1019.07,142.0
2019-06-28 22:10,50.6304416666667,-96.98077,8.6,9.6,17,993.25,24.2,56,22.65,0.0,1018.99,142.0
2019-06-28 22:20,50.630445,-96.9807733333333,8.6,9.6,16,993.16,24.3,56,22.66,0.0,1018.89,142.0
2019-06-28 22:30,50.630445,-96.9807733333333,7.6,9.0,17,993.23,24.3,56,22.72,0.0,1018.95,142.0
2019-06-28 22:40,50.630445,-96.9807733333333,7.6,8.6,16,993.32,24.4,56,22.83,0.0,1019.04,142.0
2019-06-28 22:50,50.63045,-96.9807716666667,7.9,8.7,19,993.18,24.3,59,22.88,0.0,1018.89,142.0
2019-06-28 23:00,50.6304533333333,-96.980775,8.0,9.2,20,993.05,24.3,60,22.83,0.0,1018.77,345.5
2019-06-28 23:10,50.6304416666667,-96.9807616666667,6.9,7.8,18,993.09,24.4,60,22.80,0.0,1018.80,345.5
2019-06-28 23:20,50.6304533333333,-96.980755,6.2,7.2,16,993.07,24.5,59,22.78,0.0,1018.78,345.5
2019-06-28 23:30,50.6304566666667,-96.9807533333333,5.1,6.1,19,993.12,24.7,59,22.77,0.0,1018.82,345.5
2019-06-28 23:40,50.6304583333333,-96.9807566666667,5.0,5.8,27,993.11,24.7,59,22.76,0.0,1018.80,345.5
2019-06-28 23:50,50.6304566666667,-96.9807516666667,5.7,6.6,27,993.05,24.6,60,22.83,0.0,1018.74,345.5
